Flag for Germany Weather past 2 weeks in Gelsenkirchen, North Rhine-Westphalia, Germany

Now
80 °F

Scattered clouds.


Feels Like: 80 °F
Forecast: 60 / 71 °F
Wind: 7 mph from Northeast

Location: Duesseldorf

Current Time: Jul 24, 2014 at 3:23:36 PM

Latest Report: Jul 24, 2014 at 3:00 PM


Visibility: 25 mi

Pressure: 29.95 "Hg

Humidity: 43%

Dew point: 55 °F

Location of GelsenkirchenLocation

Historic Weather in Gelsenkirchen — Graph

°F

Gelsenkirchen temperature yesterday

Maximum temperature yesterday: 83 °F (at 5:00 PM)
Minimum temperature yesterday: 64 °F (at 3:00 AM)
Average temperature yesterday: 75 °F

Past Weeks' High & Low Weather Summary

 TemperatureHumidityPressure
High93 °F (Jul 19, 5:00 PM)96% (Jul 9, 6:00 PM)30.19 "Hg (Jul 9, 6:00 PM)
Low53 °F (Jul 15, 3:00 AM)25% (Jul 19, 3:00 PM)29.66 "Hg (Jul 9, 6:00 PM)
Average70 °F73%29.95 "Hg
* Reported Jul 9 3:00 PM — Jul 24 2:00 PM, Gelsenkirchen, Weather by CustomWeather, © 2014

Note: Actual official high and low records may vary slightly from our data, if they occured in-between our weather recording intervals... More about our weather records

Advertising

Gelsenkirchen weather history for previous 24 hours

 ConditionsComfort  
Time TempWeatherWind HumidityBarometerVisibility
2:00 PM
Jul 24
79 °FScattered clouds.7 mph46%29.96 "Hg22 mi
1:00 PM78 °FScattered clouds.7 mph51%29.97 "Hg22 mi
12:00 PM76 °FPassing clouds.5 mph52%29.97 "Hg22 mi
10:00 AM72 °FPassing clouds.5 mph57%29.98 "Hg22 mi
9:00 AM69 °FScattered clouds.5 mph64%29.98 "Hg19 mi
8:00 AM66 °FScattered clouds.6 mph69%29.99 "Hg19 mi
7:00 AM65 °FPassing clouds.3 mph72%29.98 "Hg19 mi
6:00 AM64 °FPassing clouds.5 mph73%29.98 "Hg22 mi
5:00 AM65 °FPassing clouds.5 mph72%29.97 "Hg16 mi
4:00 AM64 °FClear.5 mph77%29.98 "Hg22 mi
3:00 AM66 °FClear.5 mph72%29.99 "Hg19 mi
2:00 AM66 °FClear.2 mph75%30.00 "Hg22 mi
1:00 AM66 °FClear.2 mph76%30.00 "Hg25 mi
12:00 AM70 °FPassing clouds.2 mph67%30.01 "Hg25 mi
10:00 PM
Jul 23
75 °FPassing clouds.3 mph57%30.00 "Hg22 mi
9:00 PM78 °FPassing clouds.3 mph52%29.99 "Hg25 mi
8:00 PM81 °FPassing clouds.5 mph47%29.98 "Hg22 mi
7:00 PM82 °FPassing clouds.6 mph46%29.98 "Hg22 mi
6:00 PM83 °FPassing clouds.5 mph46%29.98 "Hg19 mi
5:00 PM83 °FPassing clouds.7 mph46%30.00 "Hg19 mi
4:00 PM83 °FPassing clouds.7 mph47%30.01 "Hg17 mi
3:00 PM82 °FPassing clouds.6 mph48%30.03 "Hg16 mi
Weather by CustomWeather, © 2014

See weather overviewHow to use our weather pages